MMS 3 (40484 NORAD) Tracking and Keplerian Element Data

This shows tracking and keplerian element data for the satellite.

Feedback or suggestion? Click here.




ElementValue
Catalog40484
NameMMS 3
Epoch Orbit957
Epoch Day345.6625
Epoch Year2018
RAAN65.386
Inclination1.8733
Eccentricity0.9063979
Argument of Perigee60.2435
Mean Anonmoly98.4173
Mean Motion0.3549472
Decay Rate-7.56E-06
L11 40484U 15011C 18345.66250000 -.00000756 00000-0 00000+0 0 9996
L22 40484 1.8733 65.3860 9063979 60.2435 98.4173 0.35494720 9572

Live tracking and technical data element details for MMS 3 (NORAD 40484). MMS 3 can be tracked NOW for your location showing map with azimuth and elevation plus other details from your city location.

Track the satellite on the map from your city or location and see movement details for azimuth, elevation, latitude, longitude, range, height, and movement on the map or in text.







IsCatalogInMostPopularTable: catalog: 40484, numindb: 105
Update: records affected: 1



GetName: 40484 MMS 3

Hit Count: updated at: Sat, 15 Dec 2018 13:40:15 GMT